Flag for Brazil Weather past 2 weeks in Belém, Pará, Brazil

Now
86 °F

Partly sunny.


Feels Like: 93 °F
Forecast: 76 / 90 °F
Wind: 12 mph from Southeast

Location: Belem Aeroporto

Current Time: Aug 29, 2015 at 12:30:02 PM

Latest Report: Aug 29, 2015 at 12:00 PM


Visibility: N/A

Pressure: 29.95 "Hg

Humidity: 66%

Dew point: 73 °F

Location of BelémLocation

Historic Weather in Belém — Graph

°F

Belém temperature yesterday

Maximum temperature yesterday: 88 °F (at 1:00 PM)
Minimum temperature yesterday: 75 °F (at 6:00 AM)
Average temperature yesterday: 81 °F

Past Weeks' High & Low Weather Summary

 TemperatureHumidityPressure
High91 °F (Aug 15, 1:00 PM)94% (Aug 16, 6:00 AM)29.98 "Hg (Aug 16, 6:00 AM)
Low73 °F (Aug 23, 4:00 AM)46% (Aug 15, 4:00 PM)29.77 "Hg (Aug 24, 4:00 PM)
Average81 °F77%29.88 "Hg
* Reported Aug 14 11:00 AM — Aug 29 11:00 AM, Belém, Weather by CustomWeather, © 2015

Note: Actual official high and low records may vary slightly from our data, if they occured in-between our weather recording intervals... More about our weather records

Advertising

Belém weather history for previous 24 hours

 ConditionsComfort  
Time TempWeatherWind HumidityBarometerVisibility
11:00 AM
Sat, Aug 29
86 °FPartly sunny.13 mph62%29.98 "HgN/A
10:00 AM84 °FPartly sunny.18 mph66%29.98 "HgN/A
9:00 AM81 °FScattered clouds.16 mph79%29.98 "HgN/A
8:00 AM79 °FSunny.12 mph79%29.95 "Hg10 mi
7:00 AM75 °FSunny.9 mph89%29.92 "Hg10 mi
6:00 AM75 °FClear.6 mph89%29.92 "Hg10 mi
5:00 AM75 °FClear.8 mph89%29.92 "Hg10 mi
4:00 AM75 °FClear.9 mph89%29.89 "Hg10 mi
3:00 AM75 °FClear.7 mph89%29.92 "Hg10 mi
2:00 AM77 °FClear.7 mph83%29.92 "Hg10 mi
1:00 AM77 °FClear.10 mph89%29.95 "Hg10 mi
12:00 AM77 °FClear.7 mph83%29.95 "Hg10 mi
11:00 PM
Fri, Aug 28
79 °FClear.13 mph79%29.98 "Hg10 mi
10:00 PM79 °FClear.9 mph79%29.98 "Hg10 mi
9:00 PM79 °FClear.9 mph79%29.92 "Hg10 mi
8:00 PM81 °FPassing clouds.10 mph74%29.92 "HgN/A
7:00 PM81 °FPartly cloudy.6 mph79%29.86 "HgN/A
6:00 PM82 °FBroken clouds.7 mph74%29.86 "HgN/A
5:00 PM81 °FPartly sunny.3 mph84%29.86 "HgN/A
4:00 PM84 °FPartly sunny.10 mph70%29.86 "HgN/A
3:00 PM86 °FPartly sunny.12 mph66%29.86 "HgN/A
2:00 PM84 °FPartly sunny.10 mph74%29.89 "HgN/A
1:00 PM88 °FPartly sunny.7 mph55%29.92 "HgN/A
12:00 PM86 °FPartly sunny.7 mph62%29.95 "HgN/A
Weather by CustomWeather, © 2015

See weather overviewHow to use our weather pages